sat.trackr.live / text

‹ back to catalog

STARLINK-33533

NORAD 63387 · 2025-063AA

PAYLOAD ACTIVE UNKNOWN

§ Identity

Operator
Country
US
Launch date
2025-03-26
Launch site
AFWTR
Launch vehicle
Mass (kg)
RCS (m²)

Purposes: comms

External: N2YO · Heavens-Above · Gunter

§ Orbital elements

Epoch: 2026-05-25T03:58:46.714080Z

Period
94.10 min
Inclination
53.1580°
Eccentricity
0.0001095
Mean motion
15.30206490 rev/d
Perigee alt
474.4 km
Apogee alt
475.9 km
Semi-major
6,853.3 km
B*
4.5764e-4
RAAN
54.7252°
Arg perigee
87.4301°
Mean anomaly
272.6825°
Rev number
6,645

§ Raw data

STARLINK-335331 63387U 25063AA  26145.16581845  .00013222  00000+0  45764-3 0  99972 63387  53.1580  54.7252 0001095  87.4301 272.6825 15.30206490 66457

JSON: /api/v1/satellites/63387 · /tle

For live sub-satellite position, see the globe view (requires WebGL).

§ Visibility from observer

Set your observer location to see the next 7 days of passes ≥ 10°. The values pass through the URL so the page stays shareable.

No JS? Fill the form by hand. The geolocation button needs JavaScript.